TimeAKST,TemperatureF,Dew PointF,Humidity,Sea Level PressureIn,VisibilityMPH,Wind Direction,Wind SpeedMPH,Gust SpeedMPH,PrecipitationIn,Events,Conditions,WindDirDegrees,DateUTC
12:53 AM,34.0,32.0,92,30.01,10.0,Calm,Calm,-,N/A,,Overcast,0,2013-01-03 09:53:00
1:53 AM,34.0,32.0,92,30.00,4.0,Calm,Calm,-,0.00,,Overcast,0,2013-01-03 10:53:00
2:53 AM,33.1,30.9,92,30.03,4.0,Calm,Calm,-,0.00,,Overcast,0,2013-01-03 11:53:00
3:53 AM,33.1,32.0,96,30.02,6.0,Calm,Calm,-,N/A,,Overcast,0,2013-01-03 12:53:00
4:53 AM,33.1,32.0,96,30.01,4.0,Calm,Calm,-,0.01,,Overcast,0,2013-01-03 13:53:00
5:01 AM,33.8,30.2,87,30.00,4.0,NNE,3.5,-,N/A,,Overcast,30,2013-01-03 14:01:00
5:20 AM,33.8,32.0,93,30.00,9.0,Calm,Calm,-,N/A,,Overcast,0,2013-01-03 14:20:00
5:53 AM,34.0,32.0,92,30.01,10.0,Calm,Calm,-,N/A,,Overcast,0,2013-01-03 14:53:00
6:00 AM,33.8,32.0,93,30.01,8.0,Calm,Calm,-,N/A,,Overcast,0,2013-01-03 15:00:00
6:08 AM,33.8,32.0,93,30.01,5.0,Calm,Calm,-,N/A,,Overcast,0,2013-01-03 15:08:00
6:15 AM,33.8,32.0,93,30.00,4.0,Calm,Calm,-,N/A,,Mist,0,2013-01-03 15:15:00
6:53 AM,33.1,32.0,96,30.00,10.0,Calm,Calm,-,N/A,,Unknown,0,2013-01-03 15:53:00
7:53 AM,33.1,30.9,92,30.01,6.0,NNE,4.6,-,N/A,,Mist,30,2013-01-03 16:53:00
8:53 AM,30.9,28.0,89,30.00,10.0,NE,4.6,-,N/A,,Unknown,40,2013-01-03 17:53:00
9:53 AM,30.9,26.1,82,29.99,10.0,NE,6.9,-,N/A,,Unknown,50,2013-01-03 18:53:00
10:53 AM,32.0,26.1,79,29.99,10.0,NNE,5.8,-,N/A,,Unknown,30,2013-01-03 19:53:00
11:53 AM,32.0,27.0,82,29.96,10.0,NE,5.8,-,N/A,,Clear,50,2013-01-03 20:53:00
12:53 PM,33.1,27.0,78,29.94,10.0,Calm,Calm,-,N/A,,Clear,0,2013-01-03 21:53:00
1:53 PM,33.1,23.0,66,29.92,10.0,NE,5.8,-,N/A,,Clear,40,2013-01-03 22:53:00
2:53 PM,33.1,21.0,61,29.89,10.0,NE,10.4,-,N/A,,Clear,40,2013-01-03 23:53:00
3:53 PM,33.1,19.0,56,29.88,10.0,NE,19.6,31.1,N/A,,Clear,40,2013-01-04 00:53:00
4:53 PM,33.1,17.1,52,29.86,10.0,NE,26.5,33.4,N/A,,Clear,50,2013-01-04 01:53:00
5:53 PM,30.9,17.1,57,29.86,10.0,NE,20.7,28.8,N/A,,Clear,50,2013-01-04 02:53:00
6:53 PM,32.0,17.1,54,29.85,10.0,NE,23.0,28.8,N/A,,Overcast,50,2013-01-04 03:53:00
7:53 PM,32.0,17.1,54,29.83,10.0,NE,23.0,33.4,N/A,,Overcast,50,2013-01-04 04:53:00
8:53 PM,32.0,17.1,54,29.83,10.0,NE,16.1,24.2,N/A,,Overcast,50,2013-01-04 05:53:00
9:53 PM,32.0,17.1,54,29.83,10.0,NE,17.3,28.8,N/A,,Overcast,50,2013-01-04 06:53:00
10:53 PM,32.0,17.1,54,29.83,10.0,NE,20.7,28.8,N/A,,Overcast,50,2013-01-04 07:53:00
11:53 PM,32.0,17.1,54,29.84,10.0,NE,21.9,29.9,N/A,,Overcast,40,2013-01-04 08:53:00